Temperature
16 16 16 17 20 21 21 21 20 19 20 18 18 19 20 21 21 19 15 15 15 15 14 14 14 14 14 14 14 14 14 14 14 14 14 14 14 14 15 15 15 15 15 15 15 15 15 15 15
16 16 16 18 21 21 21 21 20 20 19 17 17 17 18 18 16 15 14 15 14 14 14 14 14 14 14 14 14 14 14 14 14 14 14 14 14 14 14 14 14 15 15 15 15 15 15 15 15
16 16 17 20 20 21 21 20 20 18 16 17 17 17 17 17 14 14 14 14 14 14 14 14 14 14 14 14 14 14 14 14 14 14 14 14 14 14 14 14 14 14 14 15 15 15 15 15 15
15 16 17 19 20 20 20 20 18 18 17 16 17 17 15 14 13 13 14 14 13 14 13 14 14 14 14 14 14 14 14 14 14 14 14 14 14 14 14 14 14 14 14 14 14 15 15 15 15
15 17 19 19 19 19 19 18 17 18 18 17 17 18 16 14 14 14 14 14 13 13 13 13 13 13 13 13 14 13 14 14 14 14 14 14 14 14 14 14 14 14 14 14 14 14 14 14 14
16 18 19 19 19 19 18 16 17 18 18 16 16 17 15 14 14 14 13 13 13 13 13 13 13 13 13 13 13 13 13 13 13 14 14 14 14 13 13 13 13 13 14 14 14 14 14 14 14
17 18 19 19 19 18 18 16 17 18 18 17 16 17 15 13 13 13 13 13 13 13 13 13 13 13 13 13 13 13 13 13 13 13 13 13 13 13 13 13 13 13 13 13 13 14 13 13 14
15 17 18 18 18 18 17 15 15 16 17 15 15 17 16 13 13 13 13 13 13 13 13 13 12 12 12 12 13 13 13 13 13 13 13 13 13 13 13 13 13 13 13 13 13 13 13 13 13
14 17 18 18 17 18 16 15 15 14 15 13 13 14 13 13 13 13 12 12 12 12 12 12 12 12 12 12 12 12 12 12 12 12 13 12 12 12 12 12 13 13 12 12 13 13 13 13 13
15 16 17 17 17 17 15 15 15 14 15 14 13 13 13 13 12 12 12 12 12 12 12 12 12 12 12 12 12 12 12 12 12 12 12 12 12 12 12 12 12 12 12 12 12 12 12 12 12
14 16 15 14 14 14 14 14 14 15 16 15 14 13 12 12 12 12 12 12 12 12 12 12 12 12 12 12 12 12 12 12 12 12 12 12 12 12 12 12 12 12 12 12 12 12 12 12 12
14 14 13 14 12 13 14 14 13 14 15 14 13 13 12 12 12 12 12 11 11 12 12 12 12 12 12 12 11 11 11 11 11 11 12 11 11 12 12 11 11 11 11 11 11 11 11 11 11
13 13 12 12 11 12 12 13 13 13 13 12 12 12 12 11 11 11 11 11 11 11 11 11 11 11 11 11 11 11 11 11 11 11 11 11 11 11 11 11 11 11 11 11 11 11 11 11 11
13 12 12 12 12 12 12 13 12 13 12 11 11 11 11 11 11 11 11 11 11 11 11 11 11 11 11 11 11 11 11 11 11 11 11 11 11 11 11 11 11 11 11 11 11 10 10 11 11
11 12 13 12 12 12 12 13 13 12 11 11 11 10 10 10 10 10 11 11 11 11 11 11 11 11 11 10 10 10 10 10 10 10 10 10 10 10 10 10 10 10 10 10 10 10 10 10 10
12 13 13 13 12 11 12 14 14 11 11 11 10 10 10 9 9 10 10 10 11 10 10 10 10 10 10 10 10 10 10 10 10 10 10 10 10 10 10 10 10 10 10 10 10 10 10 10 10
12 13 13 13 12 11 12 13 13 10 10 11 10 10 9 9 9 9 10 10 10 10 10 10 10 10 10 10 10 10 10 10 10 10 10 10 10 10 10 10 10 9 9 9 9 9 9 9 9
13 13 13 13 12 11 11 12 12 10 10 10 10 10 9 9 8 8 9 9 10 10 10 10 10 10 10 10 10 10 10 9 9 9 9 9 9 9 9 9 9 9 9 9 9 9 9 9 9
11 12 12 12 11 10 11 12 12 11 10 10 10 9 9 8 8 8 8 9 9 9 9 9 9 9 9 9 9 9 9 9 9 9 9 9 9 9 9 9 9 9 9 9 9 9 9 9 9
10 11 11 11 10 10 11 11 12 11 10 9 9 8 8 7 7 7 7 8 8 9 9 9 9 9 9 9 9 9 9 9 9 9 9 9 9 9 9 9 9 8 8 8 8 8 8 8 8
10 10 10 10 10 9 9 11 11 11 9 8 7 7 7 6 6 6 7 7 7 8 8 9 9 9 9 9 9 9 8 8 8 8 8 8 8 8 8 8 8 8 8 8 8 8 8 8 8
9 9 9 9 9 10 10 11 12 11 9 8 8 7 6 6 6 5 6 6 7 7 7 8 8 8 8 8 8 8 8 8 8 8 8 8 8 8 8 8 8 8 8 8 8 8 8 8 7
8 8 8 8 9 9 10 9 11 10 9 8 8 6 5 5 5 5 5 6 6 7 7 7 7 8 8 8 8 8 8 7 7 7 7 7 7 7 7 7 7 7 7 7 7 7 7 7 7
8 8 8 8 9 9 10 9 10 9 9 8 7 6 5 4 4 4 5 5 5 6 6 7 7 7 7 7 7 7 7 7 7 7 7 7 7 7 7 7 7 7 7 7 7 7 7 7 7
8 8 9 9 9 9 9 9 9 8 7 7 6 5 4 4 4 4 4 4 5 5 6 6 6 6 6 7 7 7 7 7 6 6 6 6 6 6 6 6 6 6 6 6 6 6 7 6 6
7 8 8 8 9 10 8 8 9 7 5 5 4 4 4 3 3 3 3 4 4 4 5 5 5 6 6 6 6 6 6 6 6 6 6 6 6 6 6 6 6 6 6 6 6 6 6 6 6
7 7 7 7 7 7 9 8 7 6 5 4 4 3 3 3 3 3 3 3 3 4 4 5 5 5 5 5 5 5 5 5 5 5 5 5 5 5 5 5 5 5 5 6 6 6 6 5 5
6 6 6 6 6 7 8 8 7 6 5 4 4 3 2 2 2 2 2 3 3 3 4 4 4 5 5 5 5 5 5 5 5 4 5 5 5 5 5 5 5 5 5 5 5 5 5 5 5
5 5 5 6 6 6 7 8 6 5 4 3 3 2 2 2 1 1 2 2 2 2 3 3 4 4 4 4 4 4 4 4 4 4 4 4 4 4 4 4 4 4 4 4 4 4 4 4 4
4 4 4 5 5 5 6 6 4 4 3 2 2 1 1 1 1 1 1 1 1 1 2 2 3 3 3 3 3 3 3 3 3 3 3 4 4 4 4 4 4 4 4 4 4 4 4 4 4
Wind_Speed
1 0 2 2 4 4 6 4 3 4 3 2 2 2 3 2 1 1 4 5 6 8 10 11 10 10 9 9 8 7 7 7 8 7 7 7 7 7 6 6 6 7 8 8 8 9 9 10 10
0 1 2 3 5 7 5 4 6 4 2 3 3 2 2 1 2 3 4 5 7 9 9 9 10 9 9 8 8 7 7 7 7 7 7 7 7 6 6 6 7 7 7 8 8 9 9 9 9
1 1 2 3 5 6 3 3 4 3 3 3 3 1 1 1 3 3 4 6 7 8 8 9 9 9 8 8 8 7 6 6 6 6 6 6 6 6 6 6 7 7 7 7 8 8 8 8 9
2 2 2 5 8 5 3 1 2 5 4 3 3 3 2 2 1 3 5 7 8 7 8 9 8 8 8 8 7 7 6 6 6 5 6 5 5 5 5 6 7 7 7 8 8 8 7 8 8
1 3 5 6 7 4 3 2 4 6 5 4 4 3 3 2 2 4 6 7 7 6 7 8 8 8 8 8 7 6 6 5 5 5 5 5 5 5 5 7 7 7 7 7 7 7 7 8 8
3 3 6 9 8 4 4 4 5 6 5 4 4 3 3 3 4 5 5 6 6 6 6 7 8 7 7 7 6 6 5 5 5 5 5 4 4 4 5 6 7 7 7 7 7 7 7 7 8
3 4 6 7 7 6 4 4 5 6 6 4 3 4 3 4 4 5 5 5 5 6 6 6 7 7 7 7 6 5 5 5 5 5 5 4 4 4 5 5 6 7 7 7 7 7 7 7 8
2 3 6 6 7 6 3 4 3 5 4 1 3 4 3 5 5 5 5 5 5 5 5 5 6 6 6 6 6 6 5 5 5 6 5 5 5 5 5 5 5 6 6 7 7 7 7 7 7
3 5 8 7 6 4 4 4 2 2 3 3 3 2 1 6 8 7 6 5 5 4 4 4 5 5 5 5 6 6 6 5 6 6 6 5 4 5 5 5 5 6 6 6 7 7 7 7 6
4 7 8 4 4 3 4 4 3 4 5 5 4 3 3 7 8 9 8 7 6 5 4 4 4 5 5 4 5 5 5 5 5 5 5 4 4 3 4 6 6 6 6 6 6 6 7 6 5
4 6 5 3 3 3 4 4 4 5 7 8 7 6 7 8 9 9 8 8 7 5 4 4 4 4 5 4 4 4 4 4 5 5 5 4 4 3 3 4 5 5 5 5 6 6 5 5 4
4 5 5 3 2 3 4 4 5 9 7 3 4 5 8 9 9 9 9 7 6 5 4 4 4 4 5 5 4 4 4 4 4 4 5 4 3 3 3 3 3 3 3 3 4 4 4 4 4
7 4 4 4 4 4 4 7 7 9 8 3 2 5 8 9 9 8 7 6 6 5 4 4 4 5 5 4 4 4 4 4 4 4 4 4 3 3 3 3 3 2 3 3 3 3 4 3 3
4 5 5 5 5 3 5 8 6 8 5 4 5 6 7 8 8 7 6 6 6 5 5 4 4 4 4 4 4 4 4 4 4 4 4 5 4 4 3 3 3 2 2 3 3 3 3 3 2
2 4 6 5 5 3 4 9 9 7 4 5 6 6 7 7 7 8 8 7 6 6 5 5 5 4 5 5 5 4 4 5 4 4 4 4 4 4 4 3 3 3 3 3 3 3 3 2 2
4 5 6 4 4 3 5 11 5 3 4 5 5 6 6 7 7 7 7 6 6 5 5 5 4 4 5 5 5 4 4 4 4 4 4 4 4 4 4 3 3 3 3 3 3 3 3 3 2
4 7 9 6 4 3 7 10 5 2 4 6 6 6 6 7 7 6 6 6 6 6 6 5 5 5 4 4 4 4 4 4 4 4 4 4 4 4 4 3 3 4 3 3 3 3 3 3 2
7 8 9 9 4 6 10 12 8 5 5 7 6 6 6 6 7 6 5 5 5 5 5 5 5 5 4 4 4 3 3 3 3 3 3 4 4 4 4 3 4 4 3 3 3 3 3 2 2
7 9 12 10 5 6 12 14 12 8 7 7 6 6 6 6 5 3 4 4 4 4 4 4 5 4 4 4 4 4 4 3 3 2 3 4 4 5 4 3 3 3 3 4 4 3 3 2 2
8 10 11 8 4 6 11 14 11 8 6 5 6 6 6 5 4 3 3 3 3 4 4 4 5 5 5 5 4 4 4 3 3 2 3 3 4 5 4 4 3 3 3 4 4 4 2 2 2
9 10 10 9 8 6 8 10 8 6 4 4 4 5 4 4 4 3 4 3 3 4 4 4 5 5 5 5 4 4 3 3 3 3 2 3 3 4 4 4 4 3 3 4 4 5 4 3 2
8 6 8 9 8 6 5 7 7 5 3 4 4 4 4 4 4 3 3 3 4 3 4 4 4 4 4 5 5 6 5 5 4 4 3 3 3 3 4 4 4 4 3 4 4 4 3 4 4
6 6 8 9 9 9 8 7 6 2 4 4 4 4 4 4 3 3 3 3 3 2 2 3 3 3 4 5 6 6 5 4 4 4 4 3 3 3 3 4 4 4 4 4 4 4 4 4 5
4 4 5 6 6 8 9 8 6 2 4 3 3 4 5 5 4 3 1 1 1 2 2 2 3 3 3 4 4 5 6 5 5 5 4 3 2 2 2 3 3 3 3 4 4 4 5 5 5
2 3 3 4 6 7 4 6 5 2 2 3 3 4 5 5 4 4 3 1 1 1 2 2 3 3 3 3 3 4 4 5 6 5 4 4 2 2 2 2 2 3 3 3 3 4 5 5 5
4 5 5 6 7 7 5 7 2 4 4 4 4 5 5 5 5 4 3 2 1 1 1 2 2 2 3 3 3 3 3 3 3 3 3 3 3 2 2 2 2 2 3 3 3 3 4 4 4
4 5 5 7 8 8 7 5 3 3 5 6 6 7 6 6 6 5 4 3 2 1 1 1 2 2 3 3 3 3 3 3 3 3 2 2 2 2 2 1 1 1 2 2 3 2 3 3 3
3 3 3 4 6 8 8 7 5 3 5 6 7 7 7 6 6 5 4 4 3 2 2 1 2 3 2 3 3 2 3 3 3 3 2 2 1 1 2 1 1 1 1 2 2 2 2 2 2
2 2 4 5 6 6 8 4 3 4 4 5 7 7 7 6 6 5 5 4 3 3 2 2 2 3 3 2 2 3 3 3 3 2 2 2 1 1 2 2 2 1 2 2 2 2 2 3 2
2 3 4 5 6 6 7 5 4 5 5 6 8 8 7 6 6 5 5 4 4 4 3 3 2 3 2 2 3 3 3 3 3 2 2 2 1 1 1 2 2 2 2 2 2 2 3 3 3
Wind_Direction
24 267 234 227 213 223 231 210 200 173 181 170 166 202 210 206 254 71 92 132 139 146 150 150 148 147 143 138 134 130 129 127 124 124 125 126 124 127 123 124 122 117 112 110 112 109 106 104 101
342 232 217 221 228 226 222 205 203 191 141 137 156 184 191 173 42 94 128 137 146 144 148 149 144 146 143 142 140 137 133 131 128 127 129 129 129 129 128 128 127 120 115 114 112 111 108 109 108
137 265 220 211 227 236 218 180 195 154 154 179 167 187 213 133 124 128 123 145 144 142 146 140 141 141 141 143 142 140 137 135 133 129 129 129 131 130 130 132 129 123 116 114 114 115 114 114 113
209 186 208 228 227 233 243 161 164 168 171 194 192 165 149 84 116 120 133 146 145 144 145 139 141 142 140 140 141 141 136 135 139 138 137 134 132 129 129 137 132 127 127 124 119 120 122 121 120
213 215 217 228 235 228 235 239 199 199 190 187 199 185 158 125 110 125 140 146 147 145 146 145 142 142 141 141 142 144 142 138 146 146 143 140 136 132 128 136 138 139 139 134 128 125 127 127 126
186 217 227 234 229 226 225 209 201 213 201 187 198 197 163 136 145 141 146 150 148 146 145 146 141 140 137 139 144 140 139 136 138 145 146 145 139 131 133 136 143 144 143 140 137 132 131 131 130
214 217 236 241 239 234 220 189 209 214 209 201 205 199 168 166 153 150 151 148 147 148 150 151 154 150 142 136 139 139 136 134 131 131 129 132 136 134 138 135 143 148 145 145 144 139 135 133 131
224 222 232 231 234 237 189 183 230 229 223 174 210 218 196 174 156 153 151 150 149 153 157 159 161 165 163 158 143 146 146 139 133 126 120 123 134 140 138 147 145 153 151 146 147 146 139 134 130
205 226 235 230 227 227 178 201 207 242 206 196 225 269 35 142 154 158 160 163 163 163 169 170 174 177 171 167 160 162 157 151 149 143 134 144 156 159 154 143 137 148 154 152 149 148 142 137 134
206 229 238 235 231 232 203 220 207 204 217 223 226 225 161 163 173 178 183 185 187 190 189 187 185 184 182 177 176 179 178 169 171 167 162 163 152 141 136 118 120 127 135 145 148 147 156 167 164
209 231 236 233 239 249 224 229 216 226 237 238 232 209 184 185 189 194 196 199 200 199 200 204 197 194 192 185 184 180 175 171 176 175 168 162 152 147 142 139 140 142 148 155 157 172 179 186 179
209 233 238 239 228 227 231 230 232 234 249 283 243 196 182 189 196 201 203 203 202 203 208 210 204 198 199 193 186 184 177 174 173 175 176 171 159 159 154 154 159 159 163 164 170 179 179 184 186
221 236 239 249 244 244 243 243 254 251 254 266 207 185 193 197 202 206 205 201 198 202 206 212 212 204 197 195 190 188 187 182 180 182 188 184 177 174 169 166 155 162 164 165 167 172 172 179 179
226 237 254 255 246 236 244 258 249 256 255 229 208 206 208 208 210 209 210 209 209 212 208 207 212 209 198 197 196 195 191 185 186 184 192 191 186 178 175 174 165 166 172 171 174 173 171 178 169
213 241 253 241 237 238 252 256 238 259 236 226 220 220 219 220 217 219 218 215 214 216 211 208 210 208 204 200 200 196 189 188 185 183 190 191 192 183 177 178 175 171 165 166 170 172 173 158 153
216 235 248 233 227 226 233 258 253 256 226 236 238 233 230 227 226 228 226 222 217 214 211 211 210 207 205 202 199 193 189 185 182 182 185 189 186 182 177 181 182 179 168 166 171 177 170 166 161
221 250 258 260 220 232 235 262 279 270 241 249 248 243 238 237 238 240 233 224 217 212 211 210 210 208 206 201 193 183 180 180 179 179 178 181 172 172 175 178 181 182 173 169 173 172 167 163 153
253 257 259 263 252 246 250 261 273 265 260 260 259 255 249 245 244 241 231 219 210 208 208 207 211 213 204 190 182 175 174 173 173 175 174 172 169 169 173 177 180 176 172 174 175 167 156 152 144
260 260 266 271 273 258 258 267 271 266 264 267 270 268 264 259 254 235 218 204 196 197 201 201 204 207 201 192 187 183 185 178 174 168 173 175 171 169 170 174 177 182 182 180 177 173 159 155 152
251 259 268 277 276 267 271 271 268 260 254 265 276 276 270 269 263 244 212 194 194 196 200 202 205 205 202 198 193 191 183 179 171 165 166 171 173 173 174 176 177 187 183 181 178 174 173 180 187
253 251 265 276 297 259 276 269 245 247 246 277 295 296 296 282 262 247 218 205 201 203 203 202 204 203 201 197 184 171 162 155 163 172 168 174 179 173 174 182 178 186 187 191 191 191 190 188 196
265 260 267 272 272 266 251 276 253 248 263 296 310 322 318 306 289 268 230 213 208 207 201 197 192 191 191 189 187 182 184 183 186 179 172 169 170 166 169 179 182 186 192 197 196 201 203 191 193
268 283 265 259 256 262 242 255 266 245 271 295 315 332 338 333 317 293 250 219 205 190 186 184 176 176 180 187 191 190 190 187 181 174 168 165 161 160 167 174 181 189 196 199 196 197 201 202 198
279 279 255 234 237 247 242 239 268 263 271 292 310 338 348 349 344 332 303 209 160 141 154 169 171 171 172 181 186 190 186 182 179 176 172 169 165 160 167 175 181 190 197 200 203 203 205 204 200
290 279 267 243 232 246 232 233 260 322 335 304 315 334 346 352 354 357 3 11 71 115 133 154 161 161 163 169 177 184 183 182 183 181 178 173 174 179 189 182 185 188 196 202 205 205 210 204 203
250 244 248 257 259 268 249 240 263 20 3 353 351 352 2 6 6 4 3 6 18 52 110 144 153 152 147 154 156 162 168 173 177 177 174 178 185 190 194 195 191 191 191 195 200 207 214 211 211
246 238 267 271 272 271 254 248 282 353 359 4 5 8 5 8 6 1 3 13 17 28 49 125 132 127 134 141 138 138 149 151 150 156 163 168 171 173 176 182 192 197 190 188 191 203 210 208 214
269 256 250 247 261 259 258 260 291 329 342 357 2 359 356 2 3 360 1 8 13 18 41 70 86 97 111 128 126 121 125 133 140 137 137 147 144 145 154 168 185 192 192 185 188 204 208 202 214
254 237 261 260 254 260 265 264 7 351 355 353 351 349 346 355 358 358 358 1 11 23 42 66 77 79 78 85 104 108 105 108 119 125 129 135 138 138 152 175 179 186 197 196 190 196 198 200 209
264 267 253 256 258 253 261 267 26 7 3 358 348 346 347 351 355 0 2 8 13 16 22 40 65 76 75 79 84 97 98 108 111 113 115 126 155 159 167 185 182 190 202 204 204 207 208 206 211
Height
1516 1517 1519 1521 1520 1516 1512 1512 1512 1515 1516 1518 1519 1518 1517 1517 1518 1523 1523 1521 1523 1525 1526 1528 1529 1531 1532 1533 1534 1534 1535 1536 1536 1537 1538 1538 1538 1539 1539 1540 1541 1541 1542 1543 1543 1544 1544 1545 1546
1517 1518 1521 1521 1516 1513 1511 1510 1513 1514 1517 1519 1520 1519 1519 1519 1521 1521 1521 1521 1523 1525 1526 1528 1529 1530 1531 1532 1533 1534 1535 1536 1536 1537 1537 1538 1538 1539 1539 1540 1541 1542 1542 1543 1543 1544 1545 1545 1546
1518 1519 1522 1518 1514 1510 1509 1511 1512 1516 1518 1519 1519 1520 1520 1520 1521 1521 1521 1521 1523 1525 1526 1528 1529 1530 1531 1532 1533 1534 1535 1536 1536 1537 1537 1538 1538 1538 1539 1540 1541 1541 1542 1543 1543 1544 1545 1545 1546
1519 1521 1521 1517 1513 1511 1511 1512 1515 1517 1518 1519 1519 1519 1520 1521 1520 1520 1520 1522 1523 1525 1526 1527 1528 1529 1530 1531 1532 1533 1534 1535 1536 1536 1537 1537 1538 1538 1539 1539 1540 1541 1542 1543 1543 1544 1545 1546 1546
1519 1520 1517 1514 1511 1511 1513 1515 1516 1515 1516 1518 1518 1517 1519 1519 1519 1519 1520 1522 1523 1525 1526 1527 1528 1529 1530 1531 1532 1532 1533 1534 1535 1536 1536 1537 1537 1538 1538 1539 1539 1540 1541 1542 1543 1544 1545 1545 1546
1520 1518 1514 1510 1509 1511 1514 1516 1516 1515 1515 1517 1518 1518 1518 1518 1518 1519 1521 1522 1523 1524 1525 1526 1527 1528 1529 1530 1531 1531 1532 1533 1534 1535 1535 1536 1537 1537 1538 1538 1539 1540 1541 1542 1543 1544 1544 1545 1546
1519 1516 1511 1509 1509 1510 1513 1515 1515 1514 1515 1517 1517 1517 1517 1518 1518 1519 1520 1522 1523 1524 1524 1525 1526 1527 1528 1529 1530 1531 1531 1532 1533 1534 1534 1535 1536 1537 1537 1537 1538 1539 1540 1541 1542 1543 1544 1545 1546
1517 1516 1512 1510 1509 1509 1513 1515 1515 1515 1515 1517 1517 1516 1516 1517 1517 1518 1520 1521 1522 1523 1524 1525 1526 1527 1527 1528 1528 1529 1530 1531 1532 1533 1533 1534 1535 1535 1536 1537 1537 1538 1539 1540 1541 1542 1543 1544 1545
1517 1516 1509 1508 1509 1509 1513 1514 1515 1515 1515 1515 1515 1516 1515 1515 1516 1517 1519 1520 1521 1522 1523 1523 1524 1525 1526 1527 1527 1528 1529 1530 1531 1531 1532 1533 1534 1534 1535 1536 1537 1537 1538 1539 1540 1541 1543 1544 1545
1516 1511 1507 1509 1509 1510 1512 1512 1513 1514 1513 1513 1513 1513 1513 1514 1515 1516 1517 1518 1519 1520 1521 1522 1523 1524 1524 1525 1526 1527 1527 1528 1529 1530 1531 1532 1532 1533 1534 1534 1535 1536 1537 1538 1539 1540 1541 1543 1544
1513 1509 1509 1511 1512 1512 1512 1512 1513 1512 1510 1510 1510 1511 1512 1513 1514 1515 1516 1517 1517 1518 1519 1520 1521 1522 1523 1523 1524 1525 1525 1526 1527 1528 1529 1530 1531 1531 1532 1533 1534 1535 1536 1537 1538 1539 1540 1541 1542
1512 1511 1511 1511 1511 1512 1511 1511 1511 1510 1508 1508 1509 1509 1509 1510 1511 1512 1513 1514 1516 1516 1517 1518 1519 1520 1521 1522 1522 1523 1524 1524 1525 1526 1527 1528 1529 1530 1531 1532 1532 1533 1534 1535 1536 1537 1539 1540 1541
1511 1510 1511 1511 1511 1511 1511 1510 1509 1507 1507 1506 1506 1506 1507 1508 1509 1510 1511 1512 1513 1514 1515 1516 1517 1518 1518 1519 1520 1521 1522 1523 1523 1524 1525 1526 1527 1528 1529 1530 1531 1532 1533 1534 1535 1536 1537 1538 1539
1510 1510 1510 1510 1510 1510 1509 1507 1508 1503 1504 1504 1504 1504 1505 1505 1506 1507 1508 1509 1510 1511 1512 1513 1514 1515 1516 1517 1517 1518 1519 1520 1521 1522 1523 1524 1525 1526 1527 1528 1529 1530 1531 1532 1533 1534 1535 1537 1538
1511 1509 1507 1507 1508 1508 1509 1504 1502 1502 1502 1502 1502 1502 1502 1503 1503 1504 1505 1506 1507 1508 1510 1510 1512 1513 1513 1514 1515 1516 1517 1518 1519 1520 1521 1522 1523 1524 1525 1526 1527 1528 1529 1530 1531 1532 1534 1535 1536
1509 1506 1503 1503 1506 1506 1508 1497 1498 1500 1500 1500 1500 1499 1499 1500 1500 1501 1502 1503 1504 1505 1506 1507 1508 1510 1511 1512 1513 1514 1515 1516 1516 1517 1518 1519 1521 1522 1523 1524 1525 1526 1527 1528 1529 1531 1532 1533 1534
1504 1501 1499 1500 1504 1504 1503 1495 1496 1498 1498 1497 1497 1497 1496 1496 1496 1497 1497 1499 1500 1501 1502 1504 1505 1506 1508 1509 1510 1511 1512 1513 1514 1515 1516 1517 1518 1519 1520 1521 1522 1524 1525 1526 1527 1529 1530 1531 1532
1500 1500 1499 1499 1500 1502 1499 1494 1494 1496 1496 1494 1494 1494 1493 1493 1492 1492 1493 1494 1496 1497 1499 1500 1502 1503 1505 1506 1507 1508 1509 1510 1511 1512 1513 1514 1515 1517 1518 1519 1520 1521 1522 1524 1525 1526 1528 1529 1530
1502 1501 1498 1497 1500 1501 1495 1491 1490 1492 1493 1492 1491 1491 1490 1489 1490 1489 1489 1490 1491 1493 1495 1496 1498 1500 1501 1502 1503 1504 1506 1507 1508 1510 1511 1512 1513 1514 1515 1516 1517 1519 1520 1521 1523 1524 1525 1527 1528
1503 1501 1497 1496 1500 1500 1493 1489 1487 1488 1489 1490 1489 1488 1487 1486 1486 1485 1486 1487 1488 1489 1491 1492 1494 1496 1498 1499 1500 1501 1503 1504 1506 1507 1508 1510 1511 1512 1513 1514 1515 1516 1517 1519 1520 1522 1523 1524 1526
1501 1500 1498 1499 1499 1498 1495 1483 1482 1484 1487 1487 1487 1486 1485 1484 1483 1483 1483 1484 1485 1486 1487 1488 1490 1492 1494 1496 1497 1498 1500 1501 1503 1504 1505 1507 1508 1509 1510 1511 1512 1513 1515 1516 1517 1519 1520 1522 1523
1499 1500 1501 1501 1499 1491 1493 1483 1474 1479 1482 1484 1484 1483 1482 1482 1481 1481 1480 1481 1482 1483 1484 1485 1487 1489 1491 1492 1493 1495 1496 1497 1499 1501 1502 1504 1505 1506 1507 1509 1510 1511 1512 1514 1515 1516 1518 1519 1520
1501 1501 1500 1499 1496 1493 1489 1488 1472 1479 1481 1481 1483 1482 1481 1481 1480 1479 1478 1479 1479 1480 1481 1483 1485 1486 1487 1489 1490 1492 1493 1495 1497 1498 1499 1501 1502 1504 1505 1506 1507 1508 1510 1511 1512 1513 1514 1516 1517
1503 1500 1496 1496 1493 1490 1483 1484 1473 1478 1480 1481 1482 1482 1481 1480 1479 1478 1477 1478 1478 1478 1479 1481 1482 1483 1485 1486 1488 1489 1491 1492 1494 1495 1496 1498 1500 1501 1502 1503 1504 1505 1507 1508 1509 1510 1511 1512 1514
1503 1498 1492 1489 1486 1479 1482 1482 1479 1481 1483 1483 1483 1482 1482 1480 1479 1478 1477 1476 1476 1476 1477 1478 1480 1481 1482 1484 1485 1487 1488 1490 1491 1492 1494 1495 1497 1498 1499 1500 1501 1502 1504 1505 1506 1507 1508 1509 1510
1502 1499 1496 1490 1479 1474 1481 1479 1479 1485 1486 1486 1485 1483 1482 1480 1479 1478 1477 1476 1475 1475 1476 1477 1478 1479 1480 1482 1483 1484 1486 1487 1488 1490 1491 1493 1494 1495 1497 1498 1499 1500 1501 1502 1503 1504 1505 1506 1507
1501 1499 1499 1495 1488 1485 1474 1476 1483 1486 1486 1486 1485 1483 1482 1481 1480 1478 1477 1476 1475 1475 1475 1475 1476 1477 1479 1480 1481 1482 1484 1485 1486 1488 1489 1490 1492 1493 1494 1495 1496 1497 1497 1499 1500 1501 1501 1502 1503
1505 1502 1501 1497 1491 1481 1473 1474 1479 1483 1485 1486 1486 1485 1483 1482 1480 1479 1478 1476 1475 1475 1474 1475 1475 1476 1477 1479 1480 1481 1482 1483 1484 1486 1487 1488 1489 1490 1491 1492 1493 1494 1494 1495 1496 1497 1498 1499 1500
1505 1505 1502 1496 1492 1486 1477 1478 1486 1487 1488 1489 1488 1487 1485 1483 1481 1479 1478 1477 1475 1474 1474 1474 1474 1475 1476 1477 1478 1479 1480 1482 1483 1484 1485 1486 1487 1488 1489 1490 1490 1491 1492 1492 1493 1494 1495 1495 1496
1506 1505 1504 1501 1494 1490 1484 1485 1490 1491 1491 1491 1489 1488 1485 1483 1481 1480 1478 1477 1475 1474 1473 1473 1473 1474 1475 1476 1477 1478 1479 1480 1481 1482 1483 1484 1485 1485 1486 1487 1487 1488 1489 1490 1490 1491 1492 1492 1493